Regional Weather Roundup
Issued by NWS

Home | Current Version | Previous Version | Text Only | Print | Product List | Glossary Off
Versions: 1 2 3 4 5 6 7 8 9 10 11 12 13 14 15 16 17 18 19 20 21 22 23 24 25 26 27 28 29 30 31 32 33 34 35 36 37 38 39 40 41 42 43 44 45 46 47 48 49 50

000
ASUS43 KBIS 280001
RWRND

NORTH DAKOTA REGIONAL WEATHER ROUNDUP
NATIONAL WEATHER SERVICE BISMARCK ND
700 PM CDT MON APR 27 2015

NOTE: "FAIR" INDICATES FEW OR NO CLOUDS BELOW 12,000 FEET WITH NO
SIGNIFICANT WEATHER AND/OR OBSTRUCTIONS TO VISIBILITY.


NDZ001>003-009>011-017-280100-
NORTHWEST NORTH DAKOTA

CITY           SKY/WX    TMP DP  RH WIND       PRES   REMARKS
WILLISTON      MOSUNNY   58  38  47 SW6       30.27S
6HR MIN TEMP:  46; 6HR MAX TEMP:  59;

MINOT          MOSUNNY   53  39  59 W5        30.26S
MINOT AFB      SUNNY     54  45  69 VRB1      30.25S
$$

NDZ018>021-031>035-040>046-280100-
SOUTHWEST NORTH DAKOTA

CITY           SKY/WX    TMP DP  RH WIND       PRES   REMARKS
BISMARCK       CLOUDY    50  40  68 N10       30.30S
6HR MIN TEMP:  47; 6HR MAX TEMP:  51;

DICKINSON      CLOUDY    48  38  68 NW7       30.29S
GARRISON         N/A     50  42  74 NW9       30.29S
6HR MIN TEMP:  46; 6HR MAX TEMP:  50;

HETTINGER ARPT CLOUDY    47  37  68 NW12      30.32R
$$

NDZ004>008-012>016-024-026-027-054-280100-
NORTHEAST NORTH DAKOTA

CITY           SKY/WX    TMP DP  RH WIND       PRES   REMARKS
GRAND FORKS    PTSUNNY   56  41  57 N18       30.20R
GRND FRKS AFB  PTSUNNY   56  41  56 N17       30.21R
DEVILS LAKE    CLOUDY    48  43  81 N9        30.25S
$$

NDZ022-023-025-028>030-036>039-047>053-280100-
SOUTHEAST NORTH DAKOTA

CITY           SKY/WX    TMP DP  RH WIND       PRES   REMARKS
FARGO          PTSUNNY   71  25  17 CALM      30.12S
6HR MIN TEMP:  69; 6HR MAX TEMP:  74;

JAMESTOWN      CLOUDY    54  41  61 NW20      30.22R
$$



USA.gov is the U.S. government's official web portal to all federal, state and local government web resources and services.